Weather in Novoselo

Bulgaria     44°09′42″N   22°47′03″E
temp.,
°C
wind,
m/s
gust,
m/s
humid.,
%
clouds,
%
prec.,
mm/h
press.,
hPa
HPBL,
m
20 april, tue
tue2000:00+7sw378597 0.0 1013206
03:00+7sw238698 0.0 101289
06:00+6w368490 0.0 1012128
09:00+10w7107475 0.0 1013820
12:00+13w786093 0.0 10141424
15:00+14wnw785268 0.1 10131649
18:00+14wnw685620 0.0 10121641
21:00+9w487492 0.0 1014149
21 april, wed
wed2100:00+8wsw497599 0.0 1015184
03:00+7wsw37795 0.0 1016122
06:00+6wsw378264 0.0 1016134
09:00+11w49705 0.0 1017480
12:00+15wnw57525 0.0 10171594
15:00+18wnw564162 0.0 10162422
18:00+17wnw564810 0.0 10162278
21:00+11w34690 0.0 101753
22 april, thu
thu2200:00+9wsw22695 0.0 101818
03:00+8w12745 0.0 101911
06:00+7wsw22743 0.0 101910
09:00+12w126245 0.0 1020192
12:00+18sw234910 0.0 1019962
15:00+20sw453898 0.0 10182094
18:00+19wsw454899 0.0 10171315
21:00+14sw345671 0.0 101738
23 april, fri
fri2300:00+12wsw1159100 0.0 101710
03:00+10nw2272100 0.0 101712
06:00+9nw227284 0.0 101816
09:00+12wnw7127693 0.0 1020614
12:00+14wnw994881 0.0 10211005
15:00+16wnw910365 0.0 10201612
18:00+15wnw710460 0.0 10201531
21:00+10wnw511530 0.0 1022287
24 april, sat
sat2400:00+8w410615 0.0 1023202
03:00+6wnw236593 0.0 102332
06:00+5nw116794 0.0 102311
09:00+9nnw2460100 0.0 1024261
12:00+14n3444100 0.0 10231440
15:00+17e1337100 0.0 10211924
18:00+16w223995 0.0 10191720
21:00+10wnw375998 0.0 1020119